Location: Caltech
(34.1382°N, 118.1253°W)
Time: 06:01:53
(UTC-07:00)

ADEOS II - Visible Passes

Search period start: 06 May 2016 00:00
Search period end: 16 May 2016 00:00
Orbit: 799 x 803 km, 98.3° (Epoch: 05 May)

Date Brightness Start Highest point End Pass type
(mag) Time Alt. Az. Time Alt. Az. Time Alt. Az.
06 May 4.7 04:15:57 10° ENE 04:19:02 16° E 04:22:07 10° SE visible
08 May 3.1 05:01:20 10° NNE 05:06:25 47° E 05:11:27 10° S visible
09 May 4.2 04:35:38 10° NE 04:39:58 26° E 04:44:17 10° SSE visible
10 May 4.8 04:10:49 10° ENE 04:13:26 14° E 04:16:04 10° ESE visible
11 May 2.3 05:21:56 10° NNE 05:27:12 78° ESE 05:32:27 10° S visible
12 May 3.4 04:55:52 10° NNE 05:00:50 42° E 05:05:47 10° S visible
13 May 4.3 04:30:16 10° NE 04:34:23 23° E 04:38:29 10° SSE visible
14 May 4.9 04:05:50 10° ENE 04:07:50 12° E 04:09:51 10° ESE visible
15 May 2.5 05:16:24 10° NNE 05:21:39 70° ESE 05:26:53 10° S visible
